loading
|

THOR ALTAIR DEB, 1931

Orbit data source: Space-Track

THOR ALTAIR DEB, 1931 is space debris in LEO originally from a launch on Fri, 10 Sep 1965 UTC launched from the Air Force Western Test Range (AFWTR). Debris objects in space refer to the collection of defunct objects orbiting the Earth. Examples of debris include non-operational satellites, rocket bodies, and fragments generated from explosions, collisions, or faulty payload assembly.

Loading next visibility...
Loading greatness...
THOR ALTAIR DEB details
Identifier
1931, 1965-072E
Orbit
LEO
Last TLE update1 day ago
Origin
Flag of USUSAF SSD (US)
ManufacturerUnknown
MissionSpacecraft
Bus & MotorUnknown bus, Unknown motor
MassUnknown
Launch date (UTC)
1965-09-10 (59 years ago)
Launch vehicleUnknown
Launch site
Air Force Western Test Range (AFWTR)
Object type
Payload
Rocket body
Debris
Shape & HBRUnknown
Radar Cross SectionSmall (<0.1 m²)

Expand to show TLE details & history

TLE from 1 day ago
0 THOR ALTAIR DEB
1 01931U 65072E   24280.73597320  .00006025  00000-0  16012-2 0  9991
2 01931  99.0396 278.1365 0244303  85.4546 277.4497 14.32719270104193
Epoch: 2024-10-06T17:39Z
Definitive object data (Epoch: 2024-10-06T17:39:48.084Z)
Latitude-0.00006°
Longitude-2.6875°
Altitude767.114 km
Speed7.48 km/s
True Right ascension18h 32m 32s
True Declination0° 00' 00"
Sunlit
Object was in daylight at TLE epoch
Predictive object data (real-time)
Latitude-78.98761°
Longitude123.96604°
Altitude985.448 km
Speed7.267 km/s
Apparent Right ascension01h 00m 24s
Apparent Declination-61° 41' 33"
Sunlit
Object is in daylight
Predictive observer data (real-time)
Local Sidereal Time12:27:36
Azimuth190.247° SSW
Elevation-67.657°
Doppler factor1
Orbital elements
Apogee954.682 km
Perigee604.94 km
Semi-major axis7,157.948 km
Eccentricity0.0244303
Inclination99.0396°
RAAN278.1365°
Arg. of periapsis85.4546°
True anomaly274.66389°
Mean anomaly277.4497°
Eccentric anomaly276.05776°
Mean motion3.58394 °/min
BSTAR0.0016012
Period100.45 mins
No data available

THOR ALTAIR DEB Visibility forecast

Observer location: 39.9160978°, -105.1181434

THOR ALTAIR DEB is not visible in the next 10 days
Span
Click to sort rows by Start time (UTC) header in descending order
Start Az.
Max El. time (UTC)
Max El. Az.
Max El.
End time (UTC)
End Az.